Brenham, TX

7:08 AM CDT on August 27, 2016 (GMT -0500)
Brenham

Weather History for K11R - August, 2014

Change the Weather History Date:

Friday, August 22, 2014

  Actual Average (KCLL) Record (KCLL)
Temperature  
Mean Temperature 88 °F 85 °F  
Max Temperature 100 °F 96 °F 108 °F (1917)
Min Temperature 78 °F 75 °F 59 °F (1940)
Degree Days  
Heating Degree Days 0 0  
Month to date heating degree days 0  
Since 1 June heating degree days 0  
Since 1 July heating degree days 0  
Cooling Degree Days 24 20  
Month to date cooling degree days 458  
Year to date cooling degree days 2173  
Since 1 June cooling degree days 1585  
Growing Degree Days 38 (Base 50)    
Moisture  
Dew Point 73 °F    
Average Humidity 65    
Maximum Humidity 96    
Minimum Humidity 32    
Precipitation  
Precipitation 0.00 in 0.09 in 1.44 in (1969)
Month to date precipitation 1.74  
Year to date precipitation 24.58  
Sea Level Pressure  
Sea Level Pressure 30.04 in    
Wind  
Wind Speed 7 mph (SSE)    
Max Wind Speed 14 mph    
Max Gust Speed 17 mph    
Visibility 9 miles    
Events      
T = Trace of Precipitation, MM = Missing Value Source: NWS Daily Summary

Daily Weather History Graph

Daily Weather History Graph

Search for Another Location

Airport or City:

Trip Planner

Search our weather history database for the weather conditions in past years. The results will help you decide how hot, cold, wet, or windy it might be!

Date:

Astronomy

Aug. 22, 2014 Rise Set
Actual Time 6:56 AM CDT 7:59 PM CDT
Civil Twilight 6:31 AM CDT 8:24 PM CDT
Nautical Twilight 6:02 AM CDT 8:53 PM CDT
Astronomical Twilight 5:32 AM CDT 9:23 PM CDT
Moon 4:25 AM CDT (8/22) 6:04 PM CDT (8/22)
Length of Visible Light 13h 52m
Length of Day
13h 02m
Waning Crescent, 7% of the Moon is Illuminated
Aug 22
Waning Crescent
Aug 25
New
Sep 2
First Quarter
Sep 8
Full
Sep 15
Last Quarter

Hourly Weather History & Observations

Time (CDT) Temp. Heat Index Dew Point Humidity Pressure Visibility Wind Dir Wind Speed Gust Speed Precip Events Conditions
12:15 AM 81.5 °F 88.0 °F 75.6 °F 82% 30.06 in 10.0 mi SSE 9.2 mph - N/A   Clear
12:35 AM 80.6 °F 86.2 °F 75.2 °F 84% 30.06 in 10.0 mi SSE 6.9 mph - N/A   Clear
12:55 AM 80.6 °F 87.1 °F 77.0 °F 89% 30.05 in 10.0 mi SSE 6.9 mph - N/A   Clear
1:15 AM 80.6 °F 86.8 °F 76.3 °F 87% 30.05 in 10.0 mi SSE 8.1 mph - N/A   Clear
1:35 AM 80.6 °F 86.8 °F 76.5 °F 87% 30.05 in 10.0 mi South 8.1 mph - N/A   Clear
1:55 AM 80.1 °F 85.7 °F 76.5 °F 89% 30.05 in 7.0 mi South 8.1 mph - N/A   Scattered Clouds
2:15 AM 79.9 °F - 76.6 °F 90% 30.05 in 7.0 mi South 9.2 mph - N/A   Mostly Cloudy
2:35 AM 79.7 °F - 76.8 °F 91% 30.05 in 7.0 mi South 8.1 mph - N/A   Overcast
2:55 AM 79.9 °F - 77.0 °F 91% 30.05 in 7.0 mi South 6.9 mph - N/A   Overcast
3:15 AM 80.1 °F 86.0 °F 77.2 °F 91% 30.05 in 7.0 mi South 6.9 mph - N/A   Overcast
3:35 AM 80.2 °F 86.5 °F 77.4 °F 91% 30.06 in 7.0 mi South 6.9 mph - N/A   Overcast
3:55 AM 80.2 °F 86.5 °F 77.4 °F 91% 30.05 in 7.0 mi South 5.8 mph - N/A   Overcast
4:15 AM 80.6 °F 87.5 °F 77.7 °F 91% 30.05 in 7.0 mi South 6.9 mph - N/A   Overcast
4:35 AM 81.0 °F 88.4 °F 77.9 °F 90% 30.05 in 7.0 mi South 5.8 mph - N/A   Overcast
4:55 AM 81.0 °F 88.4 °F 77.9 °F 90% 30.06 in 7.0 mi South 5.8 mph - N/A   Overcast
5:15 AM 81.1 °F 88.9 °F 77.9 °F 90% 30.06 in 7.0 mi South 3.5 mph - N/A   Overcast
5:35 AM 81.0 °F 88.4 °F 77.9 °F 90% 30.07 in 7.0 mi South 3.5 mph - N/A   Overcast
5:55 AM 80.4 °F 87.0 °F 77.5 °F 91% 30.07 in 7.0 mi SSE 3.5 mph - N/A   Mostly Cloudy
6:15 AM 79.7 °F - 77.4 °F 93% 30.07 in 7.0 mi SSE 3.5 mph - N/A   Overcast
6:35 AM 79.2 °F - 77.4 °F 94% 30.08 in 7.0 mi Calm Calm - N/A   Overcast
6:55 AM 78.8 °F - 77.0 °F 94% 30.08 in 5.0 mi Calm Calm - N/A   Overcast
7:15 AM 78.4 °F - 77.0 °F 95% 30.08 in 3.0 mi Calm Calm - N/A   Overcast
7:35 AM 78.4 °F - 77.0 °F 95% 30.08 in 2.5 mi Calm Calm - N/A   Overcast
7:55 AM 78.8 °F - 77.4 °F 95% 30.09 in 0.8 mi SSE 3.5 mph - N/A   Overcast
8:15 AM 79.2 °F - 77.9 °F 96% 30.08 in 2.5 mi SSE 3.5 mph - N/A   Overcast
8:35 AM 80.1 °F 86.7 °F 78.8 °F 96% 30.08 in 5.0 mi Calm Calm - N/A   Overcast
8:55 AM 82.0 °F 91.9 °F 79.3 °F 91% 30.08 in 10.0 mi South 8.1 mph - N/A   Overcast
9:15 AM 83.8 °F 95.1 °F 78.4 °F 84% 30.08 in 7.0 mi SSW 10.4 mph - N/A   Mostly Cloudy
9:35 AM 85.1 °F 94.9 °F 76.5 °F 75% 30.08 in 10.0 mi South 10.4 mph 16.1 mph N/A   Scattered Clouds
9:55 AM 86.9 °F 97.3 °F 76.1 °F 70% 30.09 in 10.0 mi South 10.4 mph 17.3 mph N/A   Scattered Clouds
10:15 AM 88.7 °F 99.3 °F 75.4 °F 65% 30.09 in 10.0 mi SW 8.1 mph - N/A   Mostly Cloudy
10:35 AM 87.4 °F 95.8 °F 73.8 °F 64% 30.10 in 10.0 mi SSW 8.1 mph - N/A   Scattered Clouds
10:55 AM 88.7 °F 96.7 °F 73.2 °F 60% 30.10 in 10.0 mi SW 9.2 mph - N/A   Scattered Clouds
11:15 AM 90.9 °F 99.4 °F 73.4 °F 56% 30.10 in 10.0 mi SW 11.5 mph - N/A   Scattered Clouds
11:35 AM 91.8 °F 99.7 °F 72.7 °F 53% 30.09 in 10.0 mi South 13.8 mph - N/A   Scattered Clouds
11:55 AM 92.3 °F 100.3 °F 72.3 °F 52% 30.09 in 10.0 mi South 5.8 mph - N/A   Scattered Clouds
12:15 PM 93.0 °F 100.7 °F 72.0 °F 50% 30.08 in 10.0 mi SSE 8.1 mph - N/A   Clear
12:35 PM 93.6 °F 100.7 °F 70.9 °F 48% 30.07 in 10.0 mi South 9.2 mph - N/A   Clear
12:55 PM 94.1 °F 101.2 °F 71.1 °F 47% 30.07 in 10.0 mi SSW 6.9 mph - N/A   Clear
1:15 PM 95.2 °F 101.7 °F 70.2 °F 44% 30.06 in 10.0 mi SE 6.9 mph - N/A   Clear
1:35 PM 95.4 °F 102.0 °F 70.0 °F 44% 30.05 in 10.0 mi South 3.5 mph - N/A   Clear
1:55 PM 96.1 °F 102.3 °F 69.3 °F 42% 30.04 in 10.0 mi South 10.4 mph - N/A   Clear
2:15 PM 96.6 °F 101.5 °F 68.0 °F 39% 30.04 in 10.0 mi SE 3.5 mph - N/A   Clear
2:35 PM 98.1 °F 103.0 °F 67.5 °F 37% 30.03 in 10.0 mi SSW 10.4 mph 16.1 mph N/A   Clear
2:55 PM 98.1 °F 101.8 °F 66.2 °F 35% 30.03 in 10.0 mi SSW 11.5 mph - N/A   Clear
3:15 PM 99.0 °F 102.3 °F 64.9 °F 33% 30.02 in 10.0 mi South 9.2 mph 17.3 mph N/A   Clear
3:35 PM 99.3 °F 102.9 °F 65.1 °F 33% 30.01 in 10.0 mi SSW 11.5 mph - N/A   Clear
3:55 PM 99.0 °F 102.3 °F 65.5 °F 33% 30.00 in 10.0 mi SSE 9.2 mph - N/A   Clear
4:15 PM 99.5 °F 103.2 °F 65.5 °F 33% 29.99 in 10.0 mi SE 11.5 mph - N/A   Clear
4:35 PM 99.7 °F 102.9 °F 64.9 °F 32% 29.99 in 10.0 mi SE 9.2 mph - N/A   Clear
4:55 PM 99.7 °F 102.9 °F 64.6 °F 32% 29.98 in 10.0 mi SSE 9.2 mph - N/A   Clear
5:15 PM 99.5 °F 103.2 °F 65.7 °F 33% 29.98 in 10.0 mi SE 8.1 mph - N/A   Clear
5:35 PM 99.3 °F 102.9 °F 65.7 °F 33% 29.98 in 10.0 mi ESE 10.4 mph - N/A   Clear
5:55 PM 98.8 °F 102.5 °F 65.5 °F 34% 29.97 in 10.0 mi SE 11.5 mph 16.1 mph N/A   Clear
6:15 PM 97.9 °F 100.9 °F 65.1 °F 34% 29.97 in 10.0 mi ESE 8.1 mph - N/A   Clear
6:35 PM 97.2 °F 99.1 °F 63.9 °F 33% 29.97 in 10.0 mi ESE 10.4 mph - N/A   Clear
6:55 PM 97.0 °F 99.9 °F 64.9 °F 35% 29.97 in 10.0 mi SE 6.9 mph - N/A   Clear
7:15 PM 95.9 °F 100.1 °F 67.5 °F 39% 29.97 in 10.0 mi SE 6.9 mph - N/A   Clear
7:35 PM 94.6 °F 99.4 °F 68.0 °F 42% 29.98 in 10.0 mi SE 6.9 mph - N/A   Clear
7:55 PM 93.4 °F 98.6 °F 69.4 °F 45% 29.98 in 10.0 mi SE 11.5 mph 16.1 mph N/A   Clear
8:15 PM 92.3 °F 97.0 °F 69.1 °F 46% 29.99 in 10.0 mi South 8.1 mph - N/A   Clear
8:35 PM 91.4 °F 96.8 °F 69.8 °F 49% 29.99 in 10.0 mi SSE 4.6 mph - N/A   Clear
8:55 PM 89.8 °F 95.1 °F 70.0 °F 52% 30.00 in 10.0 mi SSE 6.9 mph - N/A   Clear
9:15 PM 89.8 °F 95.6 °F 70.7 °F 53% 30.01 in 10.0 mi SSE 11.5 mph 16.1 mph N/A   Clear
9:35 PM 88.7 °F 94.8 °F 71.1 °F 56% 30.02 in 10.0 mi SSE 12.7 mph 17.3 mph N/A   Clear
9:55 PM 88.0 °F 94.2 °F 71.6 °F 58% 30.02 in 10.0 mi South 12.7 mph 16.1 mph N/A   Clear
10:15 PM 86.9 °F 93.3 °F 72.1 °F 61% 30.03 in 10.0 mi South 10.4 mph - N/A   Clear
10:35 PM 86.0 °F 92.6 °F 72.7 °F 64% 30.03 in 10.0 mi South 11.5 mph - N/A   Clear
10:55 PM 85.1 °F 91.8 °F 73.2 °F 67% 30.03 in 10.0 mi SSE 9.2 mph - N/A   Clear
11:15 PM 84.2 °F 90.9 °F 73.4 °F 70% 30.03 in 10.0 mi South 10.4 mph - N/A   Clear
11:35 PM 83.5 °F 90.0 °F 73.8 °F 72% 30.03 in 10.0 mi South 9.2 mph - N/A   Clear
11:55 PM 82.4 °F 89.5 °F 75.2 °F 79% 30.03 in 10.0 mi South 9.2 mph - N/A   Clear